EST,Max TemperatureF,Mean TemperatureF,Min TemperatureF,Max Dew PointF,MeanDew PointF,Min DewpointF,Max Humidity, Mean Humidity, Min Humidity, Max Sea Level PressureIn, Mean Sea Level PressureIn, Min Sea Level PressureIn, Max VisibilityMiles, Mean VisibilityMiles, Min VisibilityMiles, Max Wind SpeedMPH, Mean Wind SpeedMPH, Max Gust SpeedMPH,PrecipitationIn, CloudCover, Events, WindDirDegrees
2012-12-1,56,44,31,39,35,27,86,68,49,30.37,30.31,30.26,10,10,10,8,2,,0.00,2,,180
2012-12-2,55,50,46,54,49,38,100,89,62,30.26,30.14,30.03,10,5,1,13,6,,0.10,7,Rain,215
2012-12-3,59,56,52,56,54,53,100,98,86,30.27,30.20,30.14,10,3,0,6,1,,0.01,8,Fog,188
2012-12-4,62,52,41,56,51,39,100,86,67,30.18,30.08,29.97,10,8,1,14,7,,0.49,6,Rain,227
2012-12-5,39,35,31,38,28,21,97,77,62,30.44,30.33,30.19,10,10,10,15,7,,0.00,5,,296
2012-12-6,45,34,22,27,22,19,92,69,42,30.43,30.28,30.11,10,10,8,7,3,,0.00,1,,99
2012-12-7,46,40,35,47,41,27,100,97,63,30.09,29.98,29.89,10,3,0,6,1,,0.48,8,Fog-Rain,155
2012-12-8,53,45,37,50,45,33,100,93,76,30.17,29.91,29.81,10,6,0,12,3,,0.04,8,Fog-Rain,262
2012-12-9,53,44,36,53,42,31,100,89,76,30.22,29.98,29.73,10,8,2,10,7,,0.10,8,Rain,120
2012-12-10,55,44,34,56,46,34,100,97,87,29.87,29.68,29.59,10,4,0,14,6,24,1.35,8,Fog-Rain,271
2012-12-11,37,34,29,34,29,25,100,84,65,30.30,30.07,29.81,10,8,1,12,6,,0.01,7,Snow,259
2012-12-12,38,30,23,25,22,20,92,75,51,30.52,30.44,30.31,10,9,2,7,3,,0.00,0,,211
2012-12-13,43,30,18,27,21,16,96,76,38,30.53,30.46,30.35,10,9,7,7,1,,0.00,0,,185
2012-12-14,47,35,23,28,24,19,89,69,45,30.36,30.33,30.29,10,10,10,7,2,,0.00,0,,210
2012-12-15,45,35,25,35,28,23,92,74,46,30.30,30.16,29.93,10,10,6,8,1,,0.05,2,Rain,141
2012-12-16,54,50,45,50,43,30,96,76,54,29.92,29.79,29.70,10,9,1,10,5,,0.12,7,Rain,176
2012-12-17,48,44,41,49,44,39,100,98,86,29.82,29.69,29.52,10,2,0,5,1,,0.06,6,Fog-Rain,274
2012-12-18,44,39,34,45,37,28,100,92,63,29.89,29.65,29.51,10,6,0,14,4,,0.06,7,Fog-Rain,268
2012-12-19,42,34,25,38,33,25,100,95,76,30.24,30.03,29.77,10,4,0,8,1,,0.07,5,Fog-Rain,276
2012-12-20,44,34,24,43,35,25,100,90,65,30.21,29.70,29.33,10,5,0,18,7,25,0.57,5,Fog-Rain,137
2012-12-21,37,32,28,31,27,25,93,87,73,29.75,29.46,29.31,10,4,0,23,13,33,0.00,8,Fog-Snow,256
2012-12-22,30,28,26,25,22,19,93,76,66,30.15,29.95,29.68,10,8,1,22,14,33,0.00,8,Snow,275
2012-12-23,36,28,19,23,19,17,92,77,57,30.13,30.05,29.98,10,10,8,8,4,,0.00,0,,224
2012-12-24,36,26,17,31,27,15,100,93,67,30.09,29.89,29.77,10,4,0,8,2,,0.01,6,Fog-Snow,58
2012-12-25,33,32,30,31,28,22,100,89,69,30.30,30.13,29.89,10,6,1,9,4,,0.03,8,,322
2012-12-26,30,27,24,27,23,19,100,87,69,30.27,29.82,29.64,10,4,0,16,11,26,0.00,7,Fog-Snow,56
2012-12-27,30,27,24,26,23,19,93,86,78,30.20,29.95,29.63,10,8,2,10,7,,0.00,8,Snow,294
2012-12-28,31,27,23,21,19,18,84,75,64,30.24,30.16,29.99,10,10,10,8,2,,0.01,5,,56
2012-12-29,31,28,24,27,24,19,100,90,74,30.01,29.79,29.66,10,4,0,9,4,,0.00,7,Fog-Snow,324
2012-12-30,28,22,17,25,20,14,93,83,74,30.43,30.24,30.00,10,8,2,18,9,,0.00,7,Snow,256
2012-12-31,32,25,18,28,23,15,96,86,62,30.38,30.14,30.00,10,7,0,15,7,,0.00,5,Fog-Snow,216